Change the Weather History Date:

Sunday, December 30, 2012

  Actual Average Record
Temperature  
Mean Temperature 26 °F -  
Max Temperature 41 °F 42 °F 57 °F (1998)
Min Temperature 12 °F 21 °F -11 °F (2014)
Degree Days  
Heating Degree Days 38    
Moisture  
Dew Point 8 °F    
Average Humidity 53    
Maximum Humidity 74    
Minimum Humidity 30    
Precipitation  
Precipitation 0.00 in - - ()
Sea Level Pressure  
Sea Level Pressure 30.01 in    
Wind  
Wind Speed 8 mph (SSE)    
Max Wind Speed 16 mph    
Max Gust Speed -    
Visibility 10 miles    
Events      
Averages and records for this station are not official NWS values.
T = Trace of Precipitation, MM = Missing Value Source: NWS Daily Summary

Daily Weather History Graph

Daily Weather History Graph

Search for Another Location

Airport or City:

Trip Planner

Search our weather history database for the weather conditions in past years. The results will help you decide how hot, cold, wet, or windy it might be!

Date:

Astronomy

Dec. 30, 2012 Rise Set
Actual Time 7:19 AM MST 4:44 PM MST
Civil Twilight 6:49 AM MST 5:14 PM MST
Nautical Twilight 6:15 AM MST 5:48 PM MST
Astronomical Twilight 5:42 AM MST 6:21 PM MST
Moon 7:17 PM MST (12/30) 8:30 AM MST (12/30)
Length of Visible Light 10h 24m
Length of Day
9h 24m
Waning Gibbous, 95% of the Moon is Illuminated
Dec 30
Waning Gibbous
Jan 4
Last Quarter
Jan 11
New
Jan 18
First Quarter
Jan 26
Full

Hourly Weather History & Observations

Time (MST) Temp. Windchill Dew Point Humidity Pressure Visibility Wind Dir Wind Speed Gust Speed Precip Events Conditions
12:55 AM 14.0 °F 3.9 °F 3.2 °F 62% 29.93 in 10.0 mi SSW 6.9 mph - N/A   Mostly Cloudy
1:55 AM 12.2 °F 0.7 °F 3.2 °F 67% 29.98 in 10.0 mi South 8.1 mph - N/A   Mostly Cloudy
2:55 AM 14.0 °F 3.9 °F 3.2 °F 62% 29.99 in 10.0 mi SSW 6.9 mph - N/A   Mostly Cloudy
3:55 AM 14.0 °F 3.9 °F 3.2 °F 62% 30.00 in 10.0 mi SSW 6.9 mph - N/A   Mostly Cloudy
4:55 AM 14.0 °F 2.0 °F -0.4 °F 53% 30.04 in 10.0 mi South 9.2 mph - N/A   Mostly Cloudy
5:55 AM 19.4 °F 8.6 °F -2.2 °F 39% 30.03 in 10.0 mi South 9.2 mph - N/A   Mostly Cloudy
6:55 AM 21.2 °F 10.9 °F -2.2 °F 36% 30.03 in 70.0 mi SSE 9.2 mph - N/A   Mostly Cloudy
7:55 AM 23.0 °F 12.4 °F -2.2 °F 33% 30.00 in 70.0 mi South 10.4 mph - N/A   Mostly Cloudy
8:55 AM 24.8 °F 19.1 °F -0.4 °F 34% 30.02 in 70.0 mi SE 4.6 mph - N/A   Scattered Clouds
9:55 AM 28.4 °F - 5.0 °F 37% 30.01 in 70.0 mi Calm Calm - N/A   Scattered Clouds
10:55 AM 37.4 °F 30.3 °F 8.6 °F 30% 29.96 in 70.0 mi SSE 10.4 mph - N/A   Scattered Clouds
11:55 AM 39.2 °F 31.6 °F 14.0 °F 36% 29.94 in 70.0 mi SE 12.7 mph - N/A   Scattered Clouds
12:55 PM 41.0 °F 32.8 °F 12.2 °F 31% 29.90 in 70.0 mi SSE 16.1 mph - N/A   Mostly Cloudy
1:55 PM 39.2 °F 30.5 °F 17.6 °F 42% 29.90 in 70.0 mi SE 16.1 mph - N/A   Mostly Cloudy
2:55 PM 35.6 °F 28.6 °F 21.2 °F 56% 29.93 in 70.0 mi West 9.2 mph - N/A   Mostly Cloudy
3:55 PM 26.6 °F 18.2 °F 15.8 °F 64% 30.01 in 70.0 mi West 8.1 mph - N/A   Mostly Cloudy
4:55 PM 24.8 °F - 15.8 °F 69% 30.07 in 70.0 mi NW 1.2 mph - N/A   Mostly Cloudy
5:55 PM 23.0 °F 17.0 °F 15.8 °F 74% 30.19 in 25.0 mi East 4.6 mph - N/A   Mostly Cloudy
6:55 PM 23.0 °F 14.7 °F 14.0 °F 68% 30.07 in 25.0 mi SE 6.9 mph - N/A   Mostly Cloudy
7:55 PM 21.2 °F 11.7 °F 12.2 °F 68% 30.10 in 25.0 mi SSE 8.1 mph - N/A   Mostly Cloudy
8:55 PM 21.2 °F 12.6 °F 8.6 °F 58% 30.07 in 25.0 mi ESE 6.9 mph - N/A   Mostly Cloudy
9:55 PM - - - N/A% 30.07 in 25.0 mi SE 6.9 mph - N/A   Mostly Cloudy
10:55 PM 17.6 °F 9.3 °F 8.6 °F 68% 30.04 in 25.0 mi South 5.8 mph - N/A   Mostly Cloudy
11:55 PM 17.6 °F 9.3 °F 8.6 °F 68% 30.01 in 25.0 mi ESE 5.8 mph - N/A   Mostly Cloudy